Flag Weather past 2 weeks in Sidney, British Columbia, Canada

Now
57 °F

Sprinkles. Partly cloudy.


Feels Like: 56 °F
Forecast: 34 / 52 °F
Wind: 7 mph from Southeast

Location: Victoria Int. Airportb. C.

Current Time: Nov 27, 2014 at 11:32:44 PM

Latest Report: Nov 27, 2014 at 11:04 PM


Visibility: 20 mi

Pressure: 29.54 "Hg

Humidity: 77%

Dew point: 50 °F

Location of SidneyLocation

Historic Weather in Sidney — Graph

°F

Sidney temperature yesterday

Maximum temperature yesterday: 54 °F (at 12:00 PM)
Minimum temperature yesterday: 43 °F (at 1:00 AM)
Average temperature yesterday: 48 °F

Past Weeks' High & Low Weather Summary

 TemperatureHumidityPressure
High63 °F (Nov 27, 11:00 AM)100% (Nov 17, 1:00 AM)30.56 "Hg (Nov 17, 1:00 AM)
Low27 °F (Nov 14, 5:00 AM)29% (Nov 13, 1:00 PM)29.24 "Hg (Nov 21, 5:00 PM)
Average43 °F81%30.06 "Hg
* Reported Nov 12 10:00 PM — Nov 27 10:00 PM, Sidney, Weather by CustomWeather, © 2014

Note: Actual official high and low records may vary slightly from our data, if they occured in-between our weather recording intervals... More about our weather records

Advertising

Sidney weather history for previous 24 hours

 ConditionsComfort  
Time TempWeatherWind HumidityBarometerVisibility
10:00 PM
Nov 27
59 °FPartly cloudy.5 mph68%29.55 "Hg20 mi
9:00 PM57 °FSprinkles. Partly cloudy.12 mph77%29.57 "Hg20 mi
8:56 PM57 °FSprinkles. Partly cloudy.10 mph77%29.57 "Hg20 mi
8:00 PM57 °FPartly cloudy.3 mph77%29.58 "Hg30 mi
7:45 PM57 °FPartly cloudy.9 mph77%29.58 "Hg30 mi
7:00 PM57 °FSprinkles. Partly cloudy.10 mph77%29.60 "Hg30 mi
6:00 PM57 °FSprinkles. Partly cloudy.10 mph77%29.62 "Hg30 mi
5:00 PM57 °FPartly cloudy.12 mph77%29.62 "Hg30 mi
4:00 PM57 °FSprinkles. Scattered clouds.14 mph82%29.63 "Hg30 mi
3:00 PM59 °FBroken clouds.15 mph72%29.63 "Hg30 mi
2:00 PM59 °FBroken clouds.13 mph77%29.65 "Hg30 mi
1:00 PM59 °FSprinkles. Broken clouds.15 mph77%29.67 "Hg20 mi
12:00 PM55 °FBroken clouds.10 mph82%29.69 "Hg30 mi
11:00 AM63 °FScattered clouds.8 mph64%29.71 "Hg30 mi
10:00 AM57 °FBroken clouds.9 mph82%29.71 "Hg20 mi
9:00 AM54 °FPartly sunny.15 mph94%29.72 "Hg20 mi
8:00 AM52 °FBroken clouds.15 mph94%29.73 "Hg7 mi
7:00 AM52 °FLight rain. Fog.16 mph94%29.73 "Hg1 mi
6:00 AM52 °FLight rain. Fog.18 mph94%29.74 "Hg1 mi
5:54 AM52 °FLight rain. Fog.18 mph94%29.74 "Hg1 mi
5:00 AM54 °FLight rain. Overcast.10 mph94%29.74 "Hg12 mi
4:00 AM54 °FOvercast.10 mph94%29.74 "Hg15 mi
3:00 AM57 °FPassing clouds.12 mph82%29.75 "Hg10 mi
2:00 AM57 °FPartly cloudy.7 mph82%29.75 "Hg7 mi
1:00 AM54 °FLight rain. Fog.17 mph94%29.73 "Hg6 mi
12:00 AM52 °FLight rain. Passing clouds.16 mph94%29.74 "Hg10 mi
11:00 PM
Nov 26
52 °FLight rain. Partly cloudy.12 mph94%29.74 "Hg7 mi
Weather by CustomWeather, © 2014

See weather overviewHow to use our weather pages